Flight Track Log - Related Links

Times and Time Zones

All times are in EDT time to prevent confusion due to time zone crossing. See the ASQ5344 flight status page for this flight to view local times or setup timezone preferences in your user account.

Time Position Orientation Groundspeed Altitude Reporting Facility
EDT Latitude Longitude Course Direction KTS MPH feet Rate Location/Type
06:21AM 36.3925 -82.4886 218° Southwest 225 259 5,300  Level Atlanta Center
06:22AM 36.3350 -82.5439 217° Southwest 256 295 7,300 2,300 Climbing Atlanta Center
06:23AM 36.2750 -82.5992 217° Southwest 271 312 9,900 1,700 Climbing Atlanta Center
06:24AM 36.2131 -82.6569 218° Southwest 276 318 10,700 1,350 Climbing Atlanta Center
06:25AM 36.1472 -82.7197 216° Southwest 306 352 12,600 1,700 Climbing Atlanta Center
06:26AM 36.0706 -82.7878 218° Southwest 328 377 14,100 1,600 Climbing Atlanta Center
06:27AM 35.9964 -82.8606 215° Southwest 340 391 15,800 1,450 Climbing Atlanta Center
06:28AM 35.9156 -82.9311 218° Southwest 351 404 17,000 1,100 Climbing Atlanta Center
06:29AM 35.8369 -83.0064 206° Southwest 362 417 18,000 800 Climbing Atlanta Center
06:30AM 35.7436 -83.0614 190° South 368 423 18,600 550 Climbing Atlanta Center
06:31AM 35.6394 -83.0831 195° South 369 425 19,100 500 Climbing Atlanta Center
06:32AM 35.5333 -83.1175 204° Southwest 389 448 19,600 450 Climbing Atlanta Center
06:33AM 35.4314 -83.1722 203° Southwest 399 459 20,000 200 Climbing Atlanta Center
06:34AM 35.3150 -83.2319 202° Southwest 418 481 20,000 400 Level Atlanta Center
06:35AM 35.2069 -83.2864 202° Southwest 418 481 20,800 850 Climbing Atlanta Center
06:36AM 35.1133 -83.3328 203° Southwest 418 481 21,700 600 Climbing Atlanta Center
06:37AM 35.0072 -83.3869 202° Southwest 411 473 22,000 150 Climbing Atlanta Center
06:38AM 34.8947 -83.4411 204° Southwest 416 479 22,000  Level Atlanta Center
06:39AM 34.7822 -83.5025 201° Southwest 434 499 22,000  Level Atlanta Center
06:40AM 34.6575 -83.5614 202° Southwest 439 505 22,000 -600 Level Atlanta Center
06:41AM 34.5469 -83.6150 204° Southwest 432 497 20,800 -1,650 Descending Atlanta Center
06:42AM 34.4533 -83.6658 202° Southwest 393 452 18,700 -2,050 Descending Atlanta Center
06:43AM 34.3594 -83.7117 201° Southwest 366 421 16,700 -2,250 Descending Atlanta Center
06:44AM 34.2739 -83.7522 202° Southwest 347 399 14,200 -2,350 Descending Atlanta Center
06:45AM 34.1928 -83.7928 202° Southwest 333 383 12,000 -1,100 Descending Atlanta Center
06:46AM 34.1156 -83.8306 211° Southwest 318 366 12,000 -50 Level Atlanta Center
06:47AM 34.0531 -83.8758 196° South 295 339 11,900 -796 Descending Atlanta Center
06:48AM 33.9833 -83.9000 189° South 292 336 10,500 -1,009 Descending Atlanta TRACON
06:49AM 33.9000 -83.9167 192° South 268 308 10,100 -684 Descending Atlanta TRACON
06:50AM 33.8333 -83.9333 192° South 283 326 9,200 -1,158 Descending Atlanta TRACON
06:51AM 33.7667 -83.9500 189° South 263 303 7,900 -1,500 Descending Atlanta TRACON
06:52AM 33.6833 -83.9667 239° Southwest 255 293 6,200 -1,400 Descending Atlanta TRACON
06:53AM 33.6500 -84.0333 270° West 261 300 5,100 -611 Descending Atlanta TRACON
06:54AM 33.6500 -84.1000 270° West 257 296 5,100 -110 Level Atlanta TRACON
06:54AM 33.6500 -84.1667 270° West 234 269 4,900 -737 Descending Atlanta TRACON
06:55AM 33.6500 -84.2500 270° West 219 252 3,700 -1,158 Descending Atlanta TRACON
06:56AM 33.6500 -84.3167 270° West 201 231 2,700 -991 Descending Atlanta TRACON
06:57AM 33.6500 -84.3667 270° West 149 171 1,800 -900 Descending Atlanta TRACON

Login

Don't have an account? Register now (free) for customized features, flight alerts, and more!